This is the latest recevied weather packets stored in our database for station/object WP3OF-1. If no packets are shown the sender has not sent any weather packets the latest 1 day(s).
| Time | Temp. | Humidity | Pressure | Rain* | Wind** | Luminosity | Snow |
|---|---|---|---|---|---|---|---|
| 1777970300 | 24.44° C | 91% | 1016.4 hPa | 0 mm | 4.92 m/s, 110° | - | - |
| 1777969998 | 24.44° C | 91% | 1016.6 hPa | 0 mm | 3.58 m/s, 105° | - | - |
| 1777969694 | 25° C | 91% | 1016.5 hPa | 0 mm | 4.92 m/s, 98° | - | - |
| 1777969391 | 25° C | 92% | 1016.3 hPa | 0 mm | 4.92 m/s, 111° | - | - |
| 1777969087 | 25° C | 92% | 1016.4 hPa | 0 mm | 4.02 m/s, 112° | - | - |
| 1777968784 | 25° C | 92% | 1015.9 hPa | 0 mm | 4.02 m/s, 101° | - | - |
| 1777968480 | 25° C | 92% | 1016.2 hPa | 0 mm | 4.47 m/s, 93° | - | - |
| 1777968176 | 25° C | 92% | 1016.1 hPa | 0 mm | 3.58 m/s, 88° | - | - |
| 1777967872 | 25° C | 92% | 1016.1 hPa | 0 mm | 4.47 m/s, 95° | - | - |
| 1777967569 | 25° C | 92% | 1016.1 hPa | 0 mm | 4.02 m/s, 92° | - | - |
| 1777967266 | 25° C | 92% | 1016.1 hPa | 0 mm | 4.47 m/s, 98° | - | - |
| 1777966963 | 25° C | 92% | 1016.2 hPa | 0 mm | 4.02 m/s, 88° | - | - |
| 1777966661 | 25° C | 92% | 1015.9 hPa | 0 mm | 4.02 m/s, 98° | - | - |
| 1777966358 | 25° C | 92% | 1015.9 hPa | 0 mm | 4.47 m/s, 87° | - | - |
| 1777966055 | 25° C | 92% | 1016.1 hPa | 0 mm | 4.47 m/s, 93° | - | - |
| 1777965751 | 25° C | 92% | 1016.2 hPa | 0 mm | 4.47 m/s, 86° | - | - |
| 1777965447 | 25° C | 92% | 1015.9 hPa | 0 mm | 4.02 m/s, 106° | - | - |
| 1777965144 | 25° C | 92% | 1015.8 hPa | 0 mm | 4.47 m/s, 109° | - | - |
| 1777964842 | 25° C | 92% | 1016.1 hPa | 0 mm | 4.92 m/s, 97° | - | - |
| 1777964538 | 25° C | 92% | 1015.9 hPa | 0 mm | 4.47 m/s, 90° | - | - |
| 1777964234 | 25° C | 92% | 1016.1 hPa | 0 mm | 4.92 m/s, 96° | - | - |
| 1777963931 | 25° C | 92% | 1016.2 hPa | 0 mm | 5.36 m/s, 113° | - | - |
| 1777963628 | 25° C | 92% | 1016.3 hPa | 0 mm | 4.02 m/s, 86° | - | - |
| 1777963326 | 25° C | 92% | 1016.3 hPa | 0 mm | 4.02 m/s, 96° | - | - |
| 1777963023 | 25° C | 92% | 1016.4 hPa | 0 mm | 4.02 m/s, 95° | - | - |
* Rain latest hour (hover to see other rain measurements)
** Current wind speed in m/s (hover to see current wind gust speed)